Time,TemperatureF,DewpointF,PressureIn,WindDirection,WindDirectionDegrees,WindSpeedMPH,WindSpeedGustMPH,Humidity,HourlyPrecipIn,Conditions,Clouds,dailyrainin,SoftwareType,DateUTC
2013-08-17 00:00:00,92.2,84.7,29.51,East,90,8.3,8.3,79,0.00,,,0.00,WUHU216HW,2013-08-16 21:00:00,
2013-08-17 00:05:00,92.2,85.1,29.51,ESE,113,6.0,9.8,80,0.00,,,0.00,WUHU216HW,2013-08-16 21:05:00,
2013-08-17 00:10:00,92.2,85.1,29.51,East,90,5.4,9.8,80,0.00,,,0.00,WUHU216HW,2013-08-16 21:10:00,
2013-08-17 00:15:00,92.2,85.1,29.51,East,90,6.3,9.2,80,0.00,,,0.00,WUHU216HW,2013-08-16 21:15:00,
2013-08-17 00:20:00,92.2,85.5,29.51,East,90,6.5,10.3,81,0.00,,,0.00,WUHU216HW,2013-08-16 21:20:00,
2013-08-17 00:25:00,92.0,85.3,29.51,SE,135,3.8,10.3,81,0.00,,,0.00,WUHU216HW,2013-08-16 21:25:00,
2013-08-17 00:30:00,92.0,85.3,29.51,East,90,6.0,7.6,81,0.00,,,0.00,WUHU216HW,2013-08-16 21:30:00,
2013-08-17 00:35:00,92.2,85.1,29.51,East,90,6.0,7.6,80,0.00,,,0.00,WUHU216HW,2013-08-16 21:35:00,
2013-08-17 00:40:00,92.0,84.5,29.51,ESE,113,3.4,6.7,79,0.00,,,0.00,WUHU216HW,2013-08-16 21:40:00,
2013-08-17 00:45:00,92.2,84.7,29.51,SE,135,3.6,6.5,79,0.00,,,0.00,WUHU216HW,2013-08-16 21:45:00,
2013-08-17 00:50:00,92.2,85.1,29.50,ESE,113,4.9,6.5,80,0.00,,,0.00,WUHU216HW,2013-08-16 21:50:00,
2013-08-17 00:55:00,92.0,85.0,29.50,SSE,158,5.4,6.5,80,0.00,,,0.00,WUHU216HW,2013-08-16 21:55:00,
2013-08-17 01:00:00,92.0,84.5,29.50,ESE,113,5.4,6.9,79,0.00,,,0.00,WUHU216HW,2013-08-16 22:00:00,
2013-08-17 01:05:00,92.0,85.0,29.50,ESE,113,4.5,6.9,80,0.00,,,0.00,WUHU216HW,2013-08-16 22:05:00,
2013-08-17 01:10:00,92.0,85.0,29.50,SSE,158,4.0,6.9,80,0.00,,,0.00,WUHU216HW,2013-08-16 22:10:00,
2013-08-17 01:15:00,92.0,85.3,29.50,ESE,113,3.6,6.9,81,0.00,,,0.00,WUHU216HW,2013-08-16 22:15:00,
2013-08-17 01:20:00,92.0,85.3,29.50,SE,135,4.0,6.5,81,0.00,,,0.00,WUHU216HW,2013-08-16 22:20:00,
2013-08-17 01:25:00,91.8,84.8,29.50,SE,135,4.5,5.8,80,0.00,,,0.00,WUHU216HW,2013-08-16 22:25:00,
2013-08-17 01:30:00,91.8,84.3,29.51,ESE,113,2.0,5.8,79,0.00,,,0.00,WUHU216HW,2013-08-16 22:30:00,
2013-08-17 01:35:00,91.8,84.0,29.50,SE,135,2.5,5.8,78,0.00,,,0.00,WUHU216HW,2013-08-16 22:35:00,
2013-08-17 01:40:00,91.8,84.0,29.50,SE,135,3.6,5.6,78,0.00,,,0.00,WUHU216HW,2013-08-16 22:40:00,
2013-08-17 01:45:00,91.8,83.5,29.51,East,90,2.5,4.9,77,0.00,,,0.00,WUHU216HW,2013-08-16 22:45:00,
2013-08-17 01:50:00,91.8,83.2,29.51,SE,135,2.0,6.3,76,0.00,,,0.00,WUHU216HW,2013-08-16 22:50:00,
2013-08-17 01:55:00,92.0,82.4,29.51,ESE,113,4.7,6.5,74,0.00,,,0.00,WUHU216HW,2013-08-16 22:55:00,
2013-08-17 02:00:00,92.0,83.4,29.51,SE,135,4.7,6.7,76,0.00,,,0.00,WUHU216HW,2013-08-16 23:00:00,
2013-08-17 02:05:00,92.2,83.9,29.52,ESE,113,3.8,6.7,77,0.00,,,0.00,WUHU216HW,2013-08-16 23:05:00,
2013-08-17 02:10:00,92.0,83.7,29.52,SE,135,4.3,6.5,77,0.00,,,0.00,WUHU216HW,2013-08-16 23:10:00,
2013-08-17 02:15:00,92.0,83.7,29.52,SE,135,7.4,7.4,77,0.00,,,0.00,WUHU216HW,2013-08-16 23:15:00,
2013-08-17 02:20:00,92.0,84.2,29.52,SE,135,4.0,7.4,78,0.00,,,0.00,WUHU216HW,2013-08-16 23:20:00,
2013-08-17 02:25:00,91.8,84.3,29.52,ESE,113,3.4,9.2,79,0.00,,,0.00,WUHU216HW,2013-08-16 23:25:00,
2013-08-17 02:30:00,91.8,84.3,29.52,ESE,113,4.0,9.2,79,0.00,,,0.00,WUHU216HW,2013-08-16 23:30:00,
2013-08-17 02:35:00,91.8,84.3,29.52,SE,135,3.4,7.4,79,0.00,,,0.00,WUHU216HW,2013-08-16 23:35:00,
2013-08-17 02:40:00,91.8,84.8,29.52,SE,135,3.4,7.4,80,0.00,,,0.00,WUHU216HW,2013-08-16 23:40:00,
2013-08-17 02:45:00,91.8,84.3,29.52,SSE,158,4.0,7.2,79,0.00,,,0.00,WUHU216HW,2013-08-16 23:45:00,
2013-08-17 02:50:00,91.8,84.3,29.52,ESE,113,4.9,7.2,79,0.00,,,0.00,WUHU216HW,2013-08-16 23:50:00,
2013-08-17 02:55:00,91.8,84.3,29.52,SE,135,3.8,6.7,79,0.00,,,0.00,WUHU216HW,2013-08-16 23:55:00,
2013-08-17 03:00:00,91.8,84.3,29.52,SE,135,4.7,6.3,79,0.00,,,0.00,WUHU216HW,2013-08-17 00:00:00,
2013-08-17 03:05:00,91.8,84.3,29.52,ESE,113,1.6,5.8,79,0.00,,,0.00,WUHU216HW,2013-08-17 00:05:00,
2013-08-17 03:10:00,91.8,84.8,29.52,South,180,3.4,5.8,80,0.00,,,0.00,WUHU216HW,2013-08-17 00:10:00,
2013-08-17 03:15:00,91.6,84.6,29.52,SSE,158,1.8,4.9,80,0.00,,,0.00,WUHU216HW,2013-08-17 00:15:00,
2013-08-17 03:20:00,91.6,84.2,29.52,ESE,113,3.6,4.0,79,0.00,,,0.00,WUHU216HW,2013-08-17 00:20:00,
2013-08-17 03:25:00,91.6,84.2,29.52,SSE,158,2.9,5.4,79,0.00,,,0.00,WUHU216HW,2013-08-17 00:25:00,
2013-08-17 03:30:00,91.6,84.2,29.52,SSE,158,1.3,5.4,79,0.00,,,0.00,WUHU216HW,2013-08-17 00:30:00,
2013-08-17 03:35:00,91.6,84.2,29.52,SE,135,3.4,4.0,79,0.00,,,0.00,WUHU216HW,2013-08-17 00:35:00,
2013-08-17 03:40:00,91.6,84.2,29.52,SE,135,3.4,4.0,79,0.00,,,0.00,WUHU216HW,2013-08-17 00:40:00,
2013-08-17 03:45:00,91.6,84.2,29.52,SE,135,3.4,4.0,79,0.00,,,0.00,WUHU216HW,2013-08-17 00:45:00,
2013-08-17 03:50:00,91.6,84.2,29.52,SE,135,4.3,4.5,79,0.00,,,0.00,WUHU216HW,2013-08-17 00:50:00,
2013-08-17 03:55:00,91.6,83.8,29.52,SE,135,2.5,4.9,78,0.00,,,0.00,WUHU216HW,2013-08-17 00:55:00,
2013-08-17 04:00:00,91.6,83.8,29.52,SE,135,1.8,4.9,78,0.00,,,0.00,WUHU216HW,2013-08-17 01:00:00,
2013-08-17 04:05:00,91.4,84.0,29.52,SE,135,4.7,4.9,79,0.00,,,0.00,WUHU216HW,2013-08-17 01:05:00,
2013-08-17 04:10:00,91.6,83.8,29.52,SE,135,4.3,5.4,78,0.00,,,0.00,WUHU216HW,2013-08-17 01:10:00,
2013-08-17 04:15:00,91.6,83.8,29.52,ESE,113,2.5,5.4,78,0.00,,,0.00,WUHU216HW,2013-08-17 01:15:00,
2013-08-17 04:20:00,91.4,84.0,29.52,SSE,158,1.8,5.1,79,0.00,,,0.00,WUHU216HW,2013-08-17 01:20:00,
2013-08-17 04:25:00,91.4,84.0,29.52,ENE,68,2.5,4.0,79,0.00,,,0.00,WUHU216HW,2013-08-17 01:25:00,
2013-08-17 04:30:00,91.4,84.0,29.52,ESE,113,2.9,5.6,79,0.00,,,0.00,WUHU216HW,2013-08-17 01:30:00,
2013-08-17 04:35:00,91.4,84.0,29.52,SE,135,3.4,5.6,79,0.00,,,0.00,WUHU216HW,2013-08-17 01:35:00,
2013-08-17 04:40:00,91.4,84.0,29.52,SE,135,2.9,4.7,79,0.00,,,0.00,WUHU216HW,2013-08-17 01:40:00,
2013-08-17 04:45:00,91.4,84.0,29.52,SE,135,2.5,4.7,79,0.00,,,0.00,WUHU216HW,2013-08-17 01:45:00,
2013-08-17 04:50:00,91.4,83.6,29.52,SE,135,3.6,4.7,78,0.00,,,0.00,WUHU216HW,2013-08-17 01:50:00,
2013-08-17 04:55:00,91.4,83.6,29.52,SE,135,3.6,4.0,78,0.00,,,0.00,WUHU216HW,2013-08-17 01:55:00,
2013-08-17 05:00:00,91.4,83.6,29.53,SE,135,2.0,4.0,78,0.00,,,0.00,WUHU216HW,2013-08-17 02:00:00,
2013-08-17 05:05:00,91.3,83.8,29.53,SE,135,1.1,3.4,79,0.00,,,0.00,WUHU216HW,2013-08-17 02:05:00,
2013-08-17 05:10:00,91.3,83.8,29.53,SSE,158,3.4,3.4,79,0.00,,,0.00,WUHU216HW,2013-08-17 02:10:00,
2013-08-17 05:15:00,91.3,83.8,29.53,SE,135,1.8,3.4,79,0.00,,,0.00,WUHU216HW,2013-08-17 02:15:00,
2013-08-17 05:20:00,91.3,83.8,29.53,SSE,158,0.9,3.4,79,0.00,,,0.00,WUHU216HW,2013-08-17 02:20:00,
2013-08-17 05:25:00,91.3,83.8,29.53,SSE,158,1.8,2.9,79,0.00,,,0.00,WUHU216HW,2013-08-17 02:25:00,
2013-08-17 05:30:00,91.1,83.3,29.53,SSE,158,0.4,2.9,78,0.00,,,0.00,WUHU216HW,2013-08-17 02:30:00,
2013-08-17 05:35:00,91.3,83.8,29.54,ESE,113,3.1,3.1,79,0.00,,,0.00,WUHU216HW,2013-08-17 02:35:00,
2013-08-17 05:40:00,91.4,84.0,29.54,ESE,113,1.1,3.1,79,0.00,,,0.00,WUHU216HW,2013-08-17 02:40:00,
2013-08-17 05:45:00,91.4,84.0,29.54,ENE,68,2.2,3.1,79,0.00,,,0.00,WUHU216HW,2013-08-17 02:45:00,
2013-08-17 05:50:00,91.6,84.2,29.54,ENE,68,2.0,2.5,79,0.00,,,0.00,WUHU216HW,2013-08-17 02:50:00,
2013-08-17 05:55:00,91.8,84.3,29.54,ESE,113,2.0,2.5,79,0.00,,,0.00,WUHU216HW,2013-08-17 02:55:00,
2013-08-17 06:00:00,91.8,84.3,29.54,ENE,68,1.1,2.5,79,0.00,,,0.00,WUHU216HW,2013-08-17 03:00:00,
2013-08-17 06:05:00,92.2,84.3,29.54,ESE,113,2.2,2.2,78,0.00,,,0.00,WUHU216HW,2013-08-17 03:05:00,
2013-08-17 06:10:00,92.2,84.3,29.54,East,90,2.7,2.7,78,0.00,,,0.00,WUHU216HW,2013-08-17 03:10:00,
2013-08-17 06:15:00,92.7,84.9,29.54,SE,135,2.9,3.1,78,0.00,,,0.00,WUHU216HW,2013-08-17 03:15:00,
2013-08-17 06:20:00,93.1,84.8,29.54,SSE,158,2.7,4.3,77,0.00,,,0.00,WUHU216HW,2013-08-17 03:20:00,
2013-08-17 06:25:00,93.4,85.1,29.54,SSE,158,2.0,4.3,77,0.00,,,0.00,WUHU216HW,2013-08-17 03:25:00,
2013-08-17 06:30:00,93.8,84.7,29.54,ENE,68,2.2,3.8,75,0.00,,,0.00,WUHU216HW,2013-08-17 03:30:00,
2013-08-17 06:35:00,94.1,85.1,29.54,SE,135,2.2,3.8,75,0.00,,,0.00,WUHU216HW,2013-08-17 03:35:00,
2013-08-17 06:40:00,94.3,84.8,29.55,SSE,158,1.3,3.8,74,0.00,,,0.00,WUHU216HW,2013-08-17 03:40:00,
2013-08-17 06:45:00,94.5,84.5,29.55,SE,135,1.8,3.6,73,0.00,,,0.00,WUHU216HW,2013-08-17 03:45:00,
2013-08-17 06:50:00,94.7,84.3,29.55,SE,135,3.6,4.5,72,0.00,,,0.00,WUHU216HW,2013-08-17 03:50:00,
2013-08-17 06:55:00,95.2,84.8,29.55,SSE,158,2.5,4.5,72,0.00,,,0.00,WUHU216HW,2013-08-17 03:55:00,
2013-08-17 07:00:00,95.8,85.2,29.55,SE,135,2.2,4.7,72,0.00,,,0.00,WUHU216HW,2013-08-17 04:00:00,
2013-08-17 07:01:00,95.8,85.2,29.55,SE,135,2.2,4.7,72,0.00,,,0.00,WUHU216HW,2013-08-17 04:01:00,
2013-08-17 07:06:00,95.9,84.6,29.55,SSE,158,1.8,3.8,70,0.00,,,0.00,WUHU216HW,2013-08-17 04:06:00,
2013-08-17 07:11:00,96.5,85.1,29.55,ESE,113,2.2,3.6,70,0.00,,,0.00,WUHU216HW,2013-08-17 04:11:00,
2013-08-17 07:16:00,97.0,84.7,29.55,SE,135,2.9,3.1,68,0.00,,,0.00,WUHU216HW,2013-08-17 04:16:00,
2013-08-17 07:21:00,97.4,85.1,29.55,ESE,113,1.8,3.1,68,0.00,,,0.00,WUHU216HW,2013-08-17 04:21:00,
2013-08-17 07:26:00,97.9,85.2,29.55,ENE,68,2.0,3.1,67,0.00,,,0.00,WUHU216HW,2013-08-17 04:26:00,
2013-08-17 07:31:00,97.9,84.2,29.55,SE,135,1.6,4.0,65,0.00,,,0.00,WUHU216HW,2013-08-17 04:31:00,
2013-08-17 07:36:00,98.6,85.3,29.55,SSW,203,0.4,4.0,66,0.00,,,0.00,WUHU216HW,2013-08-17 04:36:00,
2013-08-17 07:41:00,99.2,84.9,29.55,NE,45,2.0,2.5,64,0.00,,,0.00,WUHU216HW,2013-08-17 04:41:00,
2013-08-17 07:46:00,99.9,84.5,29.55,SE,135,1.8,2.9,62,0.00,,,0.00,WUHU216HW,2013-08-17 04:46:00,
2013-08-17 07:51:00,100.4,84.1,29.55,East,90,2.0,2.9,60,0.00,,,0.00,WUHU216HW,2013-08-17 04:51:00,
2013-08-17 07:56:00,99.5,84.3,29.55,East,90,4.0,4.9,62,0.00,,,0.00,WUHU216HW,2013-08-17 04:56:00,
2013-08-17 08:01:00,99.0,83.7,29.55,SE,135,2.2,4.9,62,0.00,,,0.00,WUHU216HW,2013-08-17 05:01:00,
2013-08-17 08:06:00,99.0,84.3,29.55,SSE,158,3.4,4.9,63,0.00,,,0.00,WUHU216HW,2013-08-17 05:06:00,
2013-08-17 08:11:00,98.6,83.9,29.55,ENE,68,4.0,4.0,63,0.00,,,0.00,WUHU216HW,2013-08-17 05:11:00,
2013-08-17 08:16:00,98.3,83.1,29.55,SSE,158,5.1,5.1,62,0.00,,,0.00,WUHU216HW,2013-08-17 05:16:00,
2013-08-17 08:21:00,98.1,83.3,29.55,SE,135,4.5,5.4,63,0.00,,,0.00,WUHU216HW,2013-08-17 05:21:00,
2013-08-17 08:26:00,98.1,83.3,29.55,SE,135,3.8,5.6,63,0.00,,,0.00,WUHU216HW,2013-08-17 05:26:00,
2013-08-17 08:31:00,98.1,83.9,29.55,SE,135,5.4,5.8,64,0.00,,,0.00,WUHU216HW,2013-08-17 05:31:00,
2013-08-17 08:36:00,98.3,84.1,29.55,SSE,158,3.1,6.9,64,0.00,,,0.00,WUHU216HW,2013-08-17 05:36:00,
2013-08-17 08:41:00,98.5,84.3,29.55,SE,135,4.0,6.9,64,0.00,,,0.00,WUHU216HW,2013-08-17 05:41:00,
2013-08-17 08:46:00,98.5,83.7,29.55,ESE,113,2.5,6.3,63,0.00,,,0.00,WUHU216HW,2013-08-17 05:46:00,
2013-08-17 08:51:00,98.6,84.4,29.55,SE,135,5.4,6.3,64,0.00,,,0.00,WUHU216HW,2013-08-17 05:51:00,
2013-08-17 08:56:00,98.8,84.5,29.55,East,90,4.7,6.0,64,0.00,,,0.00,WUHU216HW,2013-08-17 05:56:00,
2013-08-17 09:01:00,98.8,83.6,29.55,ESE,113,2.7,7.4,62,0.00,,,0.00,WUHU216HW,2013-08-17 06:01:00,
2013-08-17 09:06:00,98.8,84.1,29.55,ESE,113,4.9,7.4,63,0.00,,,0.00,WUHU216HW,2013-08-17 06:06:00,
2013-08-17 09:11:00,99.0,84.3,29.55,SE,135,4.7,8.1,63,0.00,,,0.00,WUHU216HW,2013-08-17 06:11:00,
2013-08-17 09:16:00,99.4,84.1,29.55,ESE,113,4.5,8.1,62,0.00,,,0.00,WUHU216HW,2013-08-17 06:16:00,
2013-08-17 09:21:00,99.4,84.5,29.55,South,180,5.4,7.8,63,0.00,,,0.00,WUHU216HW,2013-08-17 06:21:00,
2013-08-17 09:26:00,99.5,84.7,29.56,SE,135,6.3,6.9,63,0.00,,,0.00,WUHU216HW,2013-08-17 06:26:00,
2013-08-17 09:31:00,99.0,84.3,29.56,SE,135,5.6,7.4,63,0.00,,,0.00,WUHU216HW,2013-08-17 06:31:00,
2013-08-17 09:36:00,99.4,84.5,29.56,SE,135,4.7,7.4,63,0.00,,,0.00,WUHU216HW,2013-08-17 06:36:00,
2013-08-17 09:41:00,99.5,84.7,29.56,ESE,113,6.5,6.7,63,0.00,,,0.00,WUHU216HW,2013-08-17 06:41:00,
2013-08-17 09:46:00,99.4,85.1,29.56,SE,135,6.0,6.9,64,0.00,,,0.00,WUHU216HW,2013-08-17 06:46:00,
2013-08-17 09:51:00,99.0,84.7,29.56,ENE,68,6.3,8.5,64,0.00,,,0.00,WUHU216HW,2013-08-17 06:51:00,
2013-08-17 09:56:00,98.6,84.4,29.56,ESE,113,3.6,8.5,64,0.00,,,0.00,WUHU216HW,2013-08-17 06:56:00,
2013-08-17 10:01:00,98.8,84.5,29.56,South,180,4.7,6.9,64,0.00,,,0.00,WUHU216HW,2013-08-17 07:01:00,
2013-08-17 10:06:00,99.4,84.5,29.56,SE,135,4.5,6.9,63,0.00,,,0.00,WUHU216HW,2013-08-17 07:06:00,
2013-08-17 10:11:00,99.7,84.4,29.56,South,180,6.9,7.4,62,0.00,,,0.00,WUHU216HW,2013-08-17 07:11:00,
2013-08-17 10:16:00,99.7,84.4,29.55,NE,45,3.8,7.8,62,0.00,,,0.00,WUHU216HW,2013-08-17 07:16:00,
2013-08-17 10:21:00,99.7,84.4,29.55,ESE,113,4.9,7.8,62,0.00,,,0.00,WUHU216HW,2013-08-17 07:21:00,
2013-08-17 10:26:00,99.9,85.1,29.55,SE,135,4.3,6.5,63,0.00,,,0.00,WUHU216HW,2013-08-17 07:26:00,
2013-08-17 10:31:00,99.9,84.5,29.55,SSE,158,3.6,6.3,62,0.00,,,0.00,WUHU216HW,2013-08-17 07:31:00,
2013-08-17 10:36:00,99.9,84.5,29.55,East,90,4.0,7.6,62,0.00,,,0.00,WUHU216HW,2013-08-17 07:36:00,
2013-08-17 10:41:00,99.9,84.5,29.55,SE,135,6.9,7.6,62,0.00,,,0.00,WUHU216HW,2013-08-17 07:41:00,
2013-08-17 10:46:00,99.9,84.5,29.55,ESE,113,5.4,7.6,62,0.00,,,0.00,WUHU216HW,2013-08-17 07:46:00,
2013-08-17 10:51:00,99.5,84.7,29.54,East,90,6.9,7.8,63,0.00,,,0.00,WUHU216HW,2013-08-17 07:51:00,
2013-08-17 10:56:00,99.5,84.3,29.54,ESE,113,7.2,7.8,62,0.00,,,0.00,WUHU216HW,2013-08-17 07:56:00,
2013-08-17 11:01:00,99.9,84.5,29.54,ESE,113,5.4,7.8,62,0.00,,,0.00,WUHU216HW,2013-08-17 08:01:00,
2013-08-17 11:06:00,99.7,84.4,29.54,ESE,113,5.8,8.7,62,0.00,,,0.00,WUHU216HW,2013-08-17 08:06:00,
2013-08-17 11:11:00,100.1,84.3,29.54,SE,135,4.9,8.7,61,0.00,,,0.00,WUHU216HW,2013-08-17 08:11:00,
2013-08-17 11:16:00,100.4,84.5,29.54,SE,135,2.9,7.6,61,0.00,,,0.00,WUHU216HW,2013-08-17 08:16:00,
2013-08-17 11:21:00,100.4,85.1,29.54,SSE,158,5.8,7.6,62,0.00,,,0.00,WUHU216HW,2013-08-17 08:21:00,
2013-08-17 11:26:00,100.8,84.9,29.54,SSW,203,4.0,6.9,61,0.00,,,0.00,WUHU216HW,2013-08-17 08:26:00,
2013-08-17 11:31:00,100.6,84.7,29.54,SSE,158,4.7,8.9,61,0.00,,,0.00,WUHU216HW,2013-08-17 08:31:00,
2013-08-17 11:36:00,100.3,84.9,29.54,SE,135,3.6,8.9,62,0.00,,,0.00,WUHU216HW,2013-08-17 08:36:00,
2013-08-17 11:41:00,99.9,84.5,29.54,ESE,113,6.9,8.3,62,0.00,,,0.00,WUHU216HW,2013-08-17 08:41:00,
2013-08-17 11:46:00,100.4,85.1,29.54,ESE,113,6.9,8.1,62,0.00,,,0.00,WUHU216HW,2013-08-17 08:46:00,
2013-08-17 11:51:00,100.4,85.1,29.54,ESE,113,6.3,7.6,62,0.00,,,0.00,WUHU216HW,2013-08-17 08:51:00,
2013-08-17 11:56:00,100.3,85.3,29.54,East,90,7.8,8.5,63,0.00,,,0.00,WUHU216HW,2013-08-17 08:56:00,
2013-08-17 12:01:00,99.7,84.9,29.54,ESE,113,8.1,9.4,63,0.00,,,0.00,WUHU216HW,2013-08-17 09:01:00,
2013-08-17 12:06:00,99.7,85.3,29.54,East,90,8.5,9.4,64,0.00,,,0.00,WUHU216HW,2013-08-17 09:06:00,
2013-08-17 12:11:00,99.4,84.5,29.54,ENE,68,7.2,10.1,63,0.00,,,0.00,WUHU216HW,2013-08-17 09:11:00,
2013-08-17 12:16:00,99.7,85.3,29.54,ESE,113,8.1,10.1,64,0.00,,,0.00,WUHU216HW,2013-08-17 09:16:00,
2013-08-17 12:21:00,100.1,85.2,29.53,ENE,68,6.0,8.5,63,0.00,,,0.00,WUHU216HW,2013-08-17 09:21:00,
2013-08-17 12:26:00,100.3,84.9,29.53,SE,135,5.6,8.9,62,0.00,,,0.00,WUHU216HW,2013-08-17 09:26:00,
2013-08-17 12:31:00,100.1,84.7,29.53,NE,45,5.1,10.5,62,0.00,,,0.00,WUHU216HW,2013-08-17 09:31:00,
2013-08-17 12:36:00,100.1,84.7,29.53,ESE,113,6.5,10.5,62,0.00,,,0.00,WUHU216HW,2013-08-17 09:36:00,
2013-08-17 12:41:00,100.1,84.7,29.53,ENE,68,7.6,10.1,62,0.00,,,0.00,WUHU216HW,2013-08-17 09:41:00,
2013-08-17 12:46:00,100.1,84.7,29.53,ESE,113,6.9,9.8,62,0.00,,,0.00,WUHU216HW,2013-08-17 09:46:00,
2013-08-17 12:51:00,100.1,84.7,29.52,ESE,113,6.7,9.2,62,0.00,,,0.00,WUHU216HW,2013-08-17 09:51:00,
2013-08-17 12:56:00,100.3,84.9,29.52,ENE,68,4.9,9.2,62,0.00,,,0.00,WUHU216HW,2013-08-17 09:56:00,
2013-08-17 13:01:00,100.1,84.7,29.52,ESE,113,4.0,10.3,62,0.00,,,0.00,WUHU216HW,2013-08-17 10:01:00,
2013-08-17 13:06:00,100.6,85.2,29.52,SE,135,6.7,10.3,62,0.00,,,0.00,WUHU216HW,2013-08-17 10:06:00,
2013-08-17 13:11:00,100.4,85.1,29.52,ESE,113,6.3,9.2,62,0.00,,,0.00,WUHU216HW,2013-08-17 10:11:00,
2013-08-17 13:16:00,100.1,84.7,29.52,East,90,3.4,9.8,62,0.00,,,0.00,WUHU216HW,2013-08-17 10:16:00,
2013-08-17 13:21:00,100.4,85.1,29.52,East,90,6.3,9.8,62,0.00,,,0.00,WUHU216HW,2013-08-17 10:21:00,
2013-08-17 13:26:00,100.4,85.1,29.51,ENE,68,6.7,9.2,62,0.00,,,0.00,WUHU216HW,2013-08-17 10:26:00,
2013-08-17 13:31:00,100.4,85.1,29.51,East,90,10.1,10.1,62,0.00,,,0.00,WUHU216HW,2013-08-17 10:31:00,
2013-08-17 13:36:00,100.4,85.1,29.51,East,90,9.4,10.5,62,0.00,,,0.00,WUHU216HW,2013-08-17 10:36:00,
2013-08-17 13:41:00,100.4,85.5,29.51,East,90,4.3,10.5,63,0.00,,,0.00,WUHU216HW,2013-08-17 10:41:00,
2013-08-17 13:46:00,100.4,85.5,29.51,SE,135,8.5,9.8,63,0.00,,,0.00,WUHU216HW,2013-08-17 10:46:00,
2013-08-17 13:51:00,100.4,85.5,29.51,ENE,68,4.9,9.8,63,0.00,,,0.00,WUHU216HW,2013-08-17 10:51:00,
2013-08-17 13:56:00,100.8,85.4,29.51,East,90,9.8,10.7,62,0.00,,,0.00,WUHU216HW,2013-08-17 10:56:00,
2013-08-17 14:01:00,100.6,85.7,29.51,East,90,6.9,11.4,63,0.00,,,0.00,WUHU216HW,2013-08-17 11:01:00,
2013-08-17 14:06:00,100.6,85.7,29.50,NNE,23,9.6,11.4,63,0.00,,,0.00,WUHU216HW,2013-08-17 11:06:00,
2013-08-17 14:11:00,100.8,84.9,29.50,East,90,6.9,9.6,61,0.00,,,0.00,WUHU216HW,2013-08-17 11:11:00,
2013-08-17 14:16:00,101.0,85.6,29.51,East,90,8.5,10.5,62,0.00,,,0.00,WUHU216HW,2013-08-17 11:16:00,
2013-08-17 14:21:00,101.0,85.6,29.50,East,90,6.9,11.0,62,0.00,,,0.00,WUHU216HW,2013-08-17 11:21:00,
2013-08-17 14:26:00,100.8,85.4,29.50,ESE,113,10.3,11.0,62,0.00,,,0.00,WUHU216HW,2013-08-17 11:26:00,
2013-08-17 14:31:00,100.4,85.5,29.50,East,90,7.4,11.0,63,0.00,,,0.00,WUHU216HW,2013-08-17 11:31:00,
2013-08-17 14:36:00,100.6,85.2,29.50,ENE,68,4.7,10.3,62,0.00,,,0.00,WUHU216HW,2013-08-17 11:36:00,
2013-08-17 14:41:00,100.8,85.9,29.50,ENE,68,6.5,9.2,63,0.00,,,0.00,WUHU216HW,2013-08-17 11:41:00,
2013-08-17 14:46:00,100.8,85.4,29.50,East,90,7.4,9.4,62,0.00,,,0.00,WUHU216HW,2013-08-17 11:46:00,
2013-08-17 14:51:00,100.4,85.5,29.50,ESE,113,7.6,9.8,63,0.00,,,0.00,WUHU216HW,2013-08-17 11:51:00,
2013-08-17 14:56:00,100.6,85.7,29.50,ENE,68,8.3,9.8,63,0.00,,,0.00,WUHU216HW,2013-08-17 11:56:00,
2013-08-17 15:01:00,100.4,85.5,29.50,ESE,113,7.2,11.6,63,0.00,,,0.00,WUHU216HW,2013-08-17 12:01:00,
2013-08-17 15:06:00,100.6,85.7,29.50,ENE,68,9.6,11.6,63,0.00,,,0.00,WUHU216HW,2013-08-17 12:06:00,
2013-08-17 15:11:00,100.6,85.7,29.50,NE,45,6.7,11.0,63,0.00,,,0.00,WUHU216HW,2013-08-17 12:11:00,
2013-08-17 15:16:00,100.8,85.9,29.50,ESE,113,7.2,10.5,63,0.00,,,0.00,WUHU216HW,2013-08-17 12:16:00,
2013-08-17 15:21:00,100.6,85.2,29.49,ENE,68,6.9,11.9,62,0.00,,,0.00,WUHU216HW,2013-08-17 12:21:00,
2013-08-17 15:26:00,100.4,85.1,29.49,SE,135,6.7,11.9,62,0.00,,,0.00,WUHU216HW,2013-08-17 12:26:00,
2013-08-17 15:31:00,100.4,85.5,29.49,ESE,113,8.7,10.5,63,0.00,,,0.00,WUHU216HW,2013-08-17 12:31:00,
2013-08-17 15:36:00,100.3,85.3,29.49,East,90,9.8,10.1,63,0.00,,,0.00,WUHU216HW,2013-08-17 12:36:00,
2013-08-17 15:41:00,100.4,85.5,29.49,ENE,68,6.7,10.5,63,0.00,,,0.00,WUHU216HW,2013-08-17 12:41:00,
2013-08-17 15:46:00,100.3,85.9,29.49,ESE,113,9.2,10.5,64,0.00,,,0.00,WUHU216HW,2013-08-17 12:46:00,
2013-08-17 15:51:00,100.1,85.7,29.50,ESE,113,8.1,10.1,64,0.00,,,0.00,WUHU216HW,2013-08-17 12:51:00,
2013-08-17 15:56:00,100.8,86.4,29.49,ESE,113,6.3,9.8,64,0.00,,,0.00,WUHU216HW,2013-08-17 12:56:00,
2013-08-17 16:01:00,101.3,86.0,29.49,East,90,6.9,10.5,62,0.00,,,0.00,WUHU216HW,2013-08-17 13:01:00,
2013-08-17 16:06:00,102.1,86.1,29.49,East,90,5.4,10.5,61,0.00,,,0.00,WUHU216HW,2013-08-17 13:06:00,
2013-08-17 16:11:00,102.1,86.1,29.49,ENE,68,9.8,11.9,61,0.00,,,0.00,WUHU216HW,2013-08-17 13:11:00,
2013-08-17 16:16:00,101.2,85.8,29.49,ENE,68,6.3,11.9,62,0.00,,,0.00,WUHU216HW,2013-08-17 13:16:00,
2013-08-17 16:21:00,101.3,86.0,29.49,East,90,6.9,10.5,62,0.00,,,0.00,WUHU216HW,2013-08-17 13:21:00,
2013-08-17 16:26:00,101.5,86.1,29.49,ENE,68,8.1,10.5,62,0.00,,,0.00,WUHU216HW,2013-08-17 13:26:00,
2013-08-17 16:31:00,100.8,85.4,29.49,ENE,68,6.3,10.3,62,0.00,,,0.00,WUHU216HW,2013-08-17 13:31:00,
2013-08-17 16:36:00,101.5,86.1,29.49,East,90,9.2,10.3,62,0.00,,,0.00,WUHU216HW,2013-08-17 13:36:00,
2013-08-17 16:41:00,101.7,86.3,29.49,East,90,5.1,9.2,62,0.00,,,0.00,WUHU216HW,2013-08-17 13:41:00,
2013-08-17 16:46:00,101.2,85.8,29.49,East,90,7.6,9.6,62,0.00,,,0.00,WUHU216HW,2013-08-17 13:46:00,
2013-08-17 16:51:00,100.8,85.9,29.49,East,90,5.4,9.6,63,0.00,,,0.00,WUHU216HW,2013-08-17 13:51:00,
2013-08-17 16:56:00,100.6,85.7,29.49,East,90,6.3,9.4,63,0.00,,,0.00,WUHU216HW,2013-08-17 13:56:00,
2013-08-17 17:01:00,100.6,86.2,29.49,ENE,68,6.7,9.2,64,0.00,,,0.00,WUHU216HW,2013-08-17 14:01:00,
2013-08-17 17:06:00,100.1,85.7,29.49,East,90,5.8,9.2,64,0.00,,,0.00,WUHU216HW,2013-08-17 14:06:00,
2013-08-17 17:11:00,100.1,86.1,29.49,East,90,4.9,8.9,65,0.00,,,0.00,WUHU216HW,2013-08-17 14:11:00,
2013-08-17 17:16:00,99.7,85.9,29.49,NE,45,7.2,10.3,65,0.00,,,0.00,WUHU216HW,2013-08-17 14:16:00,
2013-08-17 17:21:00,99.2,85.9,29.49,ESE,113,7.6,10.3,66,0.00,,,0.00,WUHU216HW,2013-08-17 14:21:00,
2013-08-17 17:26:00,98.6,85.9,29.49,East,90,10.1,10.1,67,0.00,,,0.00,WUHU216HW,2013-08-17 14:26:00,
2013-08-17 17:31:00,97.9,85.6,29.49,East,90,7.8,10.5,68,0.00,,,0.00,WUHU216HW,2013-08-17 14:31:00,
2013-08-17 17:36:00,97.2,85.4,29.49,ENE,68,7.6,10.5,69,0.00,,,0.00,WUHU216HW,2013-08-17 14:36:00,
2013-08-17 17:41:00,96.8,85.5,29.49,ESE,113,9.2,9.6,70,0.00,,,0.00,WUHU216HW,2013-08-17 14:41:00,
2013-08-17 17:46:00,96.7,85.8,29.49,ESE,113,9.2,9.6,71,0.00,,,0.00,WUHU216HW,2013-08-17 14:46:00,
2013-08-17 17:51:00,96.3,85.8,29.49,ESE,113,4.7,11.2,72,0.00,,,0.00,WUHU216HW,2013-08-17 14:51:00,
2013-08-17 17:56:00,95.9,85.9,29.49,ESE,113,6.9,11.4,73,0.00,,,0.00,WUHU216HW,2013-08-17 14:56:00,
2013-08-17 18:01:00,95.8,85.7,29.49,ESE,113,6.0,11.4,73,0.00,,,0.00,WUHU216HW,2013-08-17 15:01:00,
2013-08-17 18:06:00,95.6,85.5,29.49,ESE,113,5.6,11.0,73,0.00,,,0.00,WUHU216HW,2013-08-17 15:06:00,
2013-08-17 18:11:00,95.4,85.3,29.50,SE,135,7.6,9.2,73,0.00,,,0.00,WUHU216HW,2013-08-17 15:11:00,
2013-08-17 18:16:00,95.4,85.3,29.50,NNE,23,5.4,8.9,73,0.00,,,0.00,WUHU216HW,2013-08-17 15:16:00,
2013-08-17 18:21:00,95.4,85.3,29.50,East,90,3.4,8.5,73,0.00,,,0.00,WUHU216HW,2013-08-17 15:21:00,
2013-08-17 18:26:00,95.4,85.3,29.50,NE,45,2.0,8.5,73,0.00,,,0.00,WUHU216HW,2013-08-17 15:26:00,
2013-08-17 18:31:00,95.4,85.3,29.50,East,90,4.3,8.5,73,0.00,,,0.00,WUHU216HW,2013-08-17 15:31:00,
2013-08-17 18:36:00,95.4,85.3,29.51,East,90,5.4,6.5,73,0.00,,,0.00,WUHU216HW,2013-08-17 15:36:00,
2013-08-17 18:41:00,95.2,85.1,29.51,NNE,23,6.0,6.5,73,0.00,,,0.00,WUHU216HW,2013-08-17 15:41:00,
2013-08-17 18:46:00,95.2,85.6,29.51,NE,45,3.1,6.3,74,0.00,,,0.00,WUHU216HW,2013-08-17 15:46:00,
2013-08-17 18:51:00,95.2,85.6,29.51,North,0,3.4,6.0,74,0.00,,,0.00,WUHU216HW,2013-08-17 15:51:00,
2013-08-17 18:56:00,95.0,85.0,29.51,NW,315,4.0,7.8,73,0.00,,,0.00,WUHU216HW,2013-08-17 15:56:00,
2013-08-17 19:01:00,95.0,85.4,29.51,East,90,3.6,7.8,74,0.00,,,0.00,WUHU216HW,2013-08-17 16:01:00,
2013-08-17 19:06:00,95.0,85.4,29.52,ENE,68,3.1,6.9,74,0.00,,,0.00,WUHU216HW,2013-08-17 16:06:00,
2013-08-17 19:11:00,95.0,85.4,29.52,East,90,4.7,6.3,74,0.00,,,0.00,WUHU216HW,2013-08-17 16:11:00,
2013-08-17 19:16:00,95.0,85.0,29.52,ENE,68,5.4,7.4,73,0.00,,,0.00,WUHU216HW,2013-08-17 16:16:00,
2013-08-17 19:21:00,94.9,85.2,29.52,ENE,68,7.6,7.6,74,0.00,,,0.00,WUHU216HW,2013-08-17 16:21:00,
2013-08-17 19:26:00,94.7,85.1,29.52,South,180,2.7,7.8,74,0.00,,,0.00,WUHU216HW,2013-08-17 16:26:00,
2013-08-17 19:31:00,94.7,85.1,29.52,East,90,5.8,7.8,74,0.00,,,0.00,WUHU216HW,2013-08-17 16:31:00,
2013-08-17 19:36:00,94.7,85.1,29.52,ESE,113,3.4,8.1,74,0.00,,,0.00,WUHU216HW,2013-08-17 16:36:00,
2013-08-17 19:41:00,94.9,85.2,29.52,ENE,68,3.4,8.1,74,0.00,,,0.00,WUHU216HW,2013-08-17 16:41:00,
2013-08-17 19:46:00,94.9,85.2,29.52,East,90,3.4,5.8,74,0.00,,,0.00,WUHU216HW,2013-08-17 16:46:00,
2013-08-17 19:51:00,94.9,84.9,29.53,North,0,4.7,6.3,73,0.00,,,0.00,WUHU216HW,2013-08-17 16:51:00,
2013-08-17 19:56:00,95.0,85.0,29.53,NE,45,4.7,6.3,73,0.00,,,0.00,WUHU216HW,2013-08-17 16:56:00,
2013-08-17 20:01:00,95.0,85.0,29.53,East,90,1.8,7.4,73,0.00,,,0.00,WUHU216HW,2013-08-17 17:01:00,
2013-08-17 20:06:00,95.0,85.0,29.53,ENE,68,5.6,7.6,73,0.00,,,0.00,WUHU216HW,2013-08-17 17:06:00,
2013-08-17 20:11:00,95.0,85.0,29.53,NE,45,1.8,7.6,73,0.00,,,0.00,WUHU216HW,2013-08-17 17:11:00,
2013-08-17 20:16:00,95.0,85.0,29.53,ENE,68,5.4,5.6,73,0.00,,,0.00,WUHU216HW,2013-08-17 17:16:00,
2013-08-17 20:21:00,94.9,84.9,29.53,NE,45,2.9,6.5,73,0.00,,,0.00,WUHU216HW,2013-08-17 17:21:00,
2013-08-17 20:26:00,94.9,84.9,29.54,NNE,23,4.7,6.7,73,0.00,,,0.00,WUHU216HW,2013-08-17 17:26:00,
2013-08-17 20:31:00,94.9,84.9,29.54,North,0,4.9,7.2,73,0.00,,,0.00,WUHU216HW,2013-08-17 17:31:00,
2013-08-17 20:36:00,94.7,85.1,29.54,NE,45,3.4,7.2,74,0.00,,,0.00,WUHU216HW,2013-08-17 17:36:00,
2013-08-17 20:41:00,94.7,85.1,29.54,North,0,4.9,6.9,74,0.00,,,0.00,WUHU216HW,2013-08-17 17:41:00,
2013-08-17 20:46:00,94.5,85.0,29.54,NNE,23,4.0,6.9,74,0.00,,,0.00,WUHU216HW,2013-08-17 17:46:00,
2013-08-17 20:51:00,94.7,85.1,29.54,NE,45,3.4,6.0,74,0.00,,,0.00,WUHU216HW,2013-08-17 17:51:00,
2013-08-17 20:56:00,94.7,85.1,29.54,ENE,68,3.1,7.4,74,0.00,,,0.00,WUHU216HW,2013-08-17 17:56:00,
2013-08-17 21:01:00,94.7,85.1,29.54,NNE,23,2.7,7.4,74,0.00,,,0.00,WUHU216HW,2013-08-17 18:01:00,
2013-08-17 21:06:00,94.7,85.1,29.54,NNE,23,8.3,8.3,74,0.00,,,0.00,WUHU216HW,2013-08-17 18:06:00,
2013-08-17 21:11:00,94.7,85.1,29.54,NNE,23,4.5,9.2,74,0.00,,,0.00,WUHU216HW,2013-08-17 18:11:00,
2013-08-17 21:16:00,94.7,85.1,29.54,NNW,338,3.6,9.2,74,0.00,,,0.00,WUHU216HW,2013-08-17 18:16:00,
2013-08-17 21:21:00,94.7,85.1,29.54,NNE,23,6.9,6.9,74,0.00,,,0.00,WUHU216HW,2013-08-17 18:21:00,
2013-08-17 21:26:00,94.7,85.1,29.54,ESE,113,2.5,6.9,74,0.00,,,0.00,WUHU216HW,2013-08-17 18:26:00,
2013-08-17 21:31:00,94.5,85.3,29.54,ESE,113,3.1,8.5,75,0.00,,,0.00,WUHU216HW,2013-08-17 18:31:00,
2013-08-17 21:36:00,94.5,85.0,29.54,ENE,68,1.8,8.5,74,0.00,,,0.00,WUHU216HW,2013-08-17 18:36:00,
2013-08-17 21:41:00,94.3,85.1,29.54,NNE,23,2.9,4.5,75,0.00,,,0.00,WUHU216HW,2013-08-17 18:41:00,
2013-08-17 21:46:00,94.3,85.1,29.54,ENE,68,2.5,5.4,75,0.00,,,0.00,WUHU216HW,2013-08-17 18:46:00,
2013-08-17 21:51:00,94.3,84.8,29.54,ENE,68,1.8,5.4,74,0.00,,,0.00,WUHU216HW,2013-08-17 18:51:00,
2013-08-17 21:56:00,94.3,84.8,29.54,ESE,113,2.0,5.1,74,0.00,,,0.00,WUHU216HW,2013-08-17 18:56:00,
2013-08-17 22:01:00,94.3,85.1,29.54,ENE,68,2.5,5.1,75,0.00,,,0.00,WUHU216HW,2013-08-17 19:01:00,
2013-08-17 22:06:00,94.3,85.1,29.54,East,90,3.1,6.5,75,0.00,,,0.00,WUHU216HW,2013-08-17 19:06:00,
2013-08-17 22:11:00,94.3,85.1,29.54,NE,45,2.5,6.5,75,0.00,,,0.00,WUHU216HW,2013-08-17 19:11:00,
2013-08-17 22:16:00,94.1,85.1,29.54,ESE,113,2.5,4.5,75,0.00,,,0.00,WUHU216HW,2013-08-17 19:16:00,
2013-08-17 22:21:00,94.1,85.1,29.54,East,90,3.4,4.7,75,0.00,,,0.00,WUHU216HW,2013-08-17 19:21:00,
2013-08-17 22:26:00,94.0,84.9,29.54,ESE,113,4.3,4.7,75,0.00,,,0.00,WUHU216HW,2013-08-17 19:26:00,
2013-08-17 22:31:00,94.0,85.2,29.53,ENE,68,5.4,5.4,76,0.00,,,0.00,WUHU216HW,2013-08-17 19:31:00,
2013-08-17 22:36:00,93.8,85.5,29.53,ENE,68,4.7,6.7,77,0.00,,,0.00,WUHU216HW,2013-08-17 19:36:00,
2013-08-17 22:41:00,93.6,85.3,29.53,East,90,4.0,6.7,77,0.00,,,0.00,WUHU216HW,2013-08-17 19:41:00,
2013-08-17 22:46:00,93.6,85.3,29.53,ESE,113,4.5,5.1,77,0.00,,,0.00,WUHU216HW,2013-08-17 19:46:00,
2013-08-17 22:51:00,93.4,85.1,29.54,ENE,68,3.6,5.6,77,0.00,,,0.00,WUHU216HW,2013-08-17 19:51:00,
2013-08-17 22:56:00,93.4,85.6,29.53,ENE,68,3.6,6.3,78,0.00,,,0.00,WUHU216HW,2013-08-17 19:56:00,
2013-08-17 23:01:00,93.4,85.6,29.53,ENE,68,4.9,6.3,78,0.00,,,0.00,WUHU216HW,2013-08-17 20:01:00,
2013-08-17 23:06:00,93.4,85.6,29.53,ENE,68,4.0,5.6,78,0.00,,,0.00,WUHU216HW,2013-08-17 20:06:00,
2013-08-17 23:11:00,93.2,85.4,29.53,ENE,68,2.7,5.6,78,0.00,,,0.00,WUHU216HW,2013-08-17 20:11:00,
2013-08-17 23:16:00,93.2,85.0,29.53,East,90,3.1,4.7,77,0.00,,,0.00,WUHU216HW,2013-08-17 20:16:00,
2013-08-17 23:21:00,93.2,85.0,29.53,ENE,68,3.4,4.7,77,0.00,,,0.00,WUHU216HW,2013-08-17 20:21:00,
2013-08-17 23:26:00,93.2,85.4,29.52,ENE,68,4.0,4.5,78,0.00,,,0.00,WUHU216HW,2013-08-17 20:26:00,
2013-08-17 23:31:00,93.1,85.2,29.52,ESE,113,2.7,4.3,78,0.00,,,0.00,WUHU216HW,2013-08-17 20:31:00,
2013-08-17 23:36:00,92.9,85.1,29.52,ENE,68,1.8,4.3,78,0.00,,,0.00,WUHU216HW,2013-08-17 20:36:00,
2013-08-17 23:41:00,93.1,85.2,29.52,East,90,2.9,4.3,78,0.00,,,0.00,WUHU216HW,2013-08-17 20:41:00,
2013-08-17 23:46:00,92.9,85.1,29.52,NE,45,4.5,4.5,78,0.00,,,0.00,WUHU216HW,2013-08-17 20:46:00,
2013-08-17 23:51:00,92.9,85.4,29.52,ENE,68,4.9,4.9,79,0.00,,,0.00,WUHU216HW,2013-08-17 20:51:00,
2013-08-17 23:56:00,92.9,85.4,29.52,East,90,4.5,5.1,79,0.00,,,0.00,WUHU216HW,2013-08-17 20:56:00,